Wind_Speed
24 25 25 25 25 25 25 26 26 26 26 26 26 25 25 25 26 27 29 31 33 35 35 35 34 34 35 34 35 34 33 33 34 37 37 30 28 32 33 32 33 34 35 34 34 33 32 31 29 28 28 29 30 28 27 27 27 25 25 28 32 33 31 28 24 22 22 21 19 21 25 25 17 8 10 16 15 9 12 18 17 18 24 22 17 18 21 21
24 24 25 25 25 25 26 26 27 27 27 27 27 27 26 26 25 25 25 26 28 30 32 33 33 34 35 34 35 35 34 33 34 35 32 28 30 32 30 29 30 30 32 32 32 31 29 28 26 26 27 29 29 27 26 26 27 30 27 30 35 32 30 28 24 21 21 20 19 20 19 17 9 3 5 6 8 7 11 17 16 20 26 24 19 18 22 23
23 23 24 25 25 25 25 26 27 27 27 27 27 27 27 27 27 26 25 25 24 25 25 27 29 31 34 34 34 35 34 33 34 33 29 28 32 32 30 29 28 27 29 30 29 29 28 27 26 25 27 28 28 27 27 27 28 32 30 32 35 29 27 26 22 20 20 21 21 20 16 16 9 5 7 5 6 8 12 19 16 18 23 23 21 19 21 23
23 23 24 24 24 25 25 25 26 26 27 27 27 27 28 28 27 27 27 26 25 24 22 21 22 26 31 33 33 33 33 32 33 32 29 29 31 32 31 29 27 27 27 28 28 29 28 28 29 28 27 28 28 27 28 29 29 31 32 34 32 25 24 23 21 20 22 23 22 18 15 17 9 4 9 8 8 11 15 22 18 18 24 24 24 21 21 23
23 23 23 23 23 24 24 25 25 25 25 26 26 27 27 27 27 27 27 26 26 25 23 20 18 20 25 29 31 32 30 28 31 32 30 29 29 30 31 28 27 27 26 27 29 30 29 29 31 31 30 29 29 29 30 30 28 30 32 32 29 25 23 19 18 19 22 22 23 20 11 12 10 1 6 8 8 10 15 21 18 17 23 24 25 24 25 24
23 23 23 23 22 23 23 24 24 24 25 25 26 26 26 26 26 26 26 26 27 26 25 22 19 19 20 23 26 30 28 23 24 27 27 29 29 28 29 28 26 26 26 27 29 31 31 30 31 34 33 29 30 31 31 29 28 29 31 29 28 28 25 20 20 22 22 19 20 20 11 12 11 1 5 9 10 12 17 20 14 12 19 22 24 25 25 24
23 22 23 22 22 22 22 23 24 24 24 24 25 25 26 25 25 25 25 25 26 26 26 24 21 20 19 20 21 25 28 26 23 22 21 25 27 27 28 28 26 26 27 28 30 32 32 32 33 34 33 31 31 31 29 28 27 29 30 28 27 27 26 25 25 27 26 22 18 16 14 12 9 3 8 10 12 17 20 18 11 11 14 16 19 21 20 20
23 23 23 23 23 23 23 23 23 24 24 24 24 24 25 25 24 24 24 24 24 25 25 24 23 21 21 21 20 24 26 26 25 23 21 22 24 26 27 27 27 27 27 29 31 32 32 34 35 34 33 31 29 29 28 26 27 30 30 27 26 25 25 24 27 30 28 26 24 21 21 17 9 4 11 13 17 21 21 20 17 14 15 16 16 15 15 19
24 24 24 24 25 25 25 25 25 24 24 24 24 24 24 24 24 24 24 24 24 24 24 24 24 22 23 22 22 25 19 15 22 25 26 27 28 27 25 25 27 28 27 28 30 32 34 35 36 35 32 27 24 26 26 27 29 30 29 28 27 27 25 23 26 31 28 26 29 28 27 24 16 12 12 15 22 24 21 19 18 17 15 14 13 14 16 20
26 26 26 27 27 27 27 27 27 26 26 25 25 24 24 24 24 23 24 23 23 24 23 24 23 23 24 23 26 25 11 14 26 28 28 31 32 27 21 22 27 29 28 29 31 33 35 35 35 34 29 25 23 23 25 29 31 27 26 28 29 28 26 26 27 28 26 25 28 29 26 23 19 18 18 19 24 27 25 21 18 17 16 12 11 13 17 18
27 27 28 28 29 30 30 29 29 28 27 26 25 24 24 23 23 23 24 23 23 23 23 23 23 25 25 25 30 22 9 17 29 29 29 30 29 25 23 24 26 30 29 29 31 33 34 34 35 34 27 25 25 23 25 28 29 26 24 26 28 27 26 28 28 27 22 23 29 30 26 19 13 15 22 24 26 28 27 24 22 18 16 15 14 15 17 16
26 27 28 29 30 31 32 32 32 31 29 27 26 24 23 23 23 23 23 22 23 23 22 22 23 25 26 29 32 20 11 19 26 28 31 29 26 25 27 27 26 30 31 31 31 32 34 34 35 36 29 25 25 22 25 28 27 26 25 27 29 27 27 28 29 29 22 19 21 22 20 17 15 18 24 27 28 30 28 24 21 17 16 18 19 18 20 18
24 25 26 27 28 30 32 33 34 33 31 29 27 24 23 22 22 23 23 22 22 22 22 22 23 24 28 33 29 19 17 21 23 28 29 25 24 26 28 29 28 30 32 33 33 31 32 34 36 38 30 26 26 21 21 25 26 28 28 28 28 29 31 29 27 28 25 21 17 14 14 16 21 24 25 26 28 29 29 25 21 18 18 21 22 22 23 20
22 23 23 24 26 27 28 30 33 34 33 30 27 25 23 22 22 23 22 22 22 22 22 22 23 24 30 33 24 18 20 23 26 30 27 22 23 26 27 28 28 28 30 33 35 33 32 33 35 36 32 29 28 21 19 21 23 27 28 28 29 32 33 28 27 28 27 26 23 18 17 19 23 26 26 26 26 26 25 24 22 21 21 23 22 21 22 17
21 22 22 23 24 25 26 27 29 31 32 31 28 25 23 22 22 21 22 22 21 22 22 22 23 24 31 33 22 18 22 26 29 28 26 23 23 26 27 28 27 25 26 30 33 35 34 32 34 38 36 30 26 22 24 23 22 26 29 31 32 33 32 25 24 28 28 27 26 24 24 24 23 23 26 28 26 23 21 20 20 21 22 23 21 20 21 18
22 22 22 22 23 24 24 25 26 27 29 29 28 24 23 22 21 21 20 20 20 22 21 21 21 24 31 30 20 20 24 27 26 23 25 25 24 24 24 27 29 25 24 26 30 33 34 33 34 38 36 31 28 26 26 25 25 28 31 34 33 33 32 26 23 26 29 27 24 25 26 27 25 22 23 24 23 22 20 19 21 22 23 23 19 19 21 20
23 24 23 23 23 23 23 24 25 25 26 26 26 24 23 22 21 20 19 18 18 19 20 20 19 24 30 26 19 18 17 20 21 20 25 25 23 23 24 27 30 28 25 23 27 32 34 34 32 34 36 35 32 26 24 28 31 31 32 32 31 30 30 29 26 25 29 30 26 26 26 25 25 24 23 21 20 20 19 19 21 22 22 20 18 17 19 19
25 25 25 25 24 23 23 24 24 24 24 23 23 23 23 22 21 20 18 17 17 18 19 20 19 21 19 11 11 13 11 15 18 17 21 24 23 25 26 26 28 29 25 23 27 32 34 33 31 29 34 38 35 31 32 35 34 31 30 30 28 27 27 30 29 27 31 34 30 28 29 26 23 24 25 23 19 17 18 19 20 21 20 18 17 17 17 17
27 27 27 27 26 24 24 24 23 22 22 22 21 22 22 22 21 20 17 15 17 19 19 17 19 20 9 5 7 10 10 13 16 14 16 20 22 26 28 25 27 27 23 24 29 33 35 32 30 30 38 46 45 41 39 34 28 26 27 28 29 27 27 29 29 27 30 36 34 30 33 33 26 23 23 21 18 17 17 19 20 19 18 15 15 17 18 18
28 28 28 28 27 26 25 24 21 21 22 21 20 20 20 20 20 18 16 15 17 18 18 17 21 25 19 8 7 12 12 11 12 11 14 16 16 24 28 26 27 27 23 25 27 31 35 30 33 41 48 52 47 40 34 28 24 23 25 27 29 31 29 28 29 27 28 35 36 30 32 34 29 23 21 19 17 17 17 18 19 17 15 14 15 17 19 20
29 29 29 29 28 26 25 23 21 21 22 22 20 19 19 17 16 17 18 19 20 20 21 19 20 25 25 19 13 14 15 16 16 12 15 19 17 21 28 30 31 31 28 26 22 26 33 35 44 50 47 45 43 37 30 28 27 25 25 28 29 33 32 28 28 28 28 33 36 34 29 29 29 25 21 20 18 16 17 16 16 15 13 14 15 17 19 20
30 30 30 29 28 26 24 22 21 20 20 20 20 20 18 15 15 17 21 25 24 21 23 21 20 23 23 20 20 18 16 19 21 17 17 20 24 24 27 32 35 33 31 27 24 26 35 48 53 46 38 36 36 35 30 29 32 28 27 29 31 34 32 29 29 28 29 33 36 36 30 25 27 25 20 19 19 16 16 14 13 13 12 14 16 17 19 19
30 30 29 29 28 26 24 21 20 19 19 19 19 18 16 15 15 16 20 27 27 23 24 27 26 24 21 19 21 22 20 22 22 20 17 19 28 29 27 33 35 31 30 32 34 35 42 52 50 37 31 32 32 34 32 31 35 34 31 30 31 34 33 32 32 28 31 35 36 38 32 25 23 21 20 18 18 17 15 14 13 12 12 13 15 17 19 20
28 28 29 29 27 26 24 21 19 18 17 16 15 13 12 13 14 15 18 25 30 25 22 26 29 28 23 16 18 23 24 25 24 20 17 18 26 29 28 32 33 29 30 35 38 40 41 39 38 33 29 31 32 32 34 35 35 36 36 32 29 31 32 33 29 26 29 32 37 40 28 21 22 20 20 19 17 18 16 16 15 15 16 16 16 18 19 22
26 27 28 28 26 24 23 20 17 15 14 12 12 11 11 14 14 14 16 20 27 26 19 20 25 28 25 16 18 24 22 25 28 24 18 19 21 28 30 29 31 30 30 35 37 39 35 24 29 35 31 31 33 33 37 38 36 35 37 36 31 27 27 28 26 26 32 29 32 38 20 13 20 20 19 21 19 19 17 17 17 17 20 19 17 19 21 24
24 25 26 27 23 20 19 18 15 12 11 10 11 11 11 14 13 13 13 15 22 23 18 17 18 21 22 19 22 24 20 26 32 30 25 24 20 25 28 26 31 33 29 31 33 36 32 22 26 35 33 32 35 34 38 39 36 37 37 36 33 28 24 26 27 28 33 29 30 36 19 11 17 19 19 21 20 20 19 18 19 20 21 20 18 20 24 24
23 23 25 25 21 18 17 17 15 12 10 7 8 9 10 11 11 12 10 8 12 14 11 12 13 14 16 16 20 25 25 28 33 34 31 29 25 26 27 26 30 34 30 27 29 33 32 26 28 35 34 33 36 38 39 39 38 38 38 34 32 31 25 25 30 30 29 31 31 31 25 17 18 22 22 21 21 21 22 21 22 22 21 21 21 21 23 21
22 22 24 23 20 16 14 15 15 13 11 7 6 6 7 8 7 7 5 2 6 9 5 7 9 9 10 11 18 28 30 22 25 34 35 32 31 29 30 29 27 32 33 28 29 32 32 32 32 36 36 35 40 42 38 37 39 40 38 32 29 29 27 25 26 27 30 31 27 26 26 15 14 24 23 22 26 23 24 26 24 24 23 22 23 22 22 20
22 21 22 22 20 16 12 12 13 11 10 8 6 4 4 4 3 2 0 2 7 8 4 4 8 8 8 11 17 25 28 19 17 28 30 32 33 29 28 30 25 27 32 30 28 26 29 33 31 33 37 38 39 39 36 36 38 39 36 30 26 24 28 25 18 18 25 23 22 29 29 14 8 25 29 24 27 26 26 28 25 25 25 23 24 23 23 22
21 20 20 20 18 15 12 9 9 9 8 7 5 4 3 1 1 2 2 4 8 10 10 4 11 9 7 14 18 21 27 25 19 16 23 33 34 27 26 29 25 23 28 31 28 24 26 30 30 32 37 38 34 34 37 36 33 36 35 29 26 26 28 22 17 21 17 12 22 33 35 22 8 22 35 26 24 25 25 29 28 27 26 24 25 24 23 22
20 20 19 18 17 14 12 10 8 6 6 6 4 2 2 2 3 3 2 5 9 10 10 5 11 10 10 15 19 21 25 29 24 14 22 34 32 29 28 28 26 21 24 31 30 26 26 30 33 33 34 35 32 32 36 35 30 33 35 29 25 24 26 20 16 20 13 7 22 32 30 24 13 22 34 24 20 21 22 29 31 29 29 26 25 24 23 21
19 19 17 16 16 14 12 10 8 5 3 4 3 1 2 3 5 7 7 8 7 6 7 5 6 11 13 14 18 23 24 29 28 18 23 33 31 33 33 29 27 21 20 28 31 30 30 33 35 31 32 35 33 32 35 37 33 32 36 35 21 11 13 13 7 9 4 1 18 29 24 18 15 22 26 20 19 20 21 26 27 27 29 27 26 25 24 23
18 18 16 15 15 13 11 10 8 7 5 2 1 1 3 3 5 8 11 10 8 10 14 15 12 9 13 15 20 23 22 27 29 20 22 31 31 33 36 31 27 23 21 27 33 31 29 33 35 31 32 36 35 35 37 41 38 36 41 38 20 6 5 6 2 2 1 3 13 26 21 11 12 18 20 19 20 19 21 25 25 26 28 27 27 26 25 25
18 18 16 15 14 12 10 9 8 8 7 6 4 4 5 6 8 10 13 14 16 19 18 18 16 8 10 18 21 22 23 27 27 20 22 31 32 32 36 32 27 26 23 23 30 28 20 23 34 35 33 38 40 37 39 41 37 38 43 36 20 10 8 6 2 3 2 3 10 18 10 4 7 13 18 22 21 21 25 27 26 26 26 25 26 27 26 26
18 17 15 14 15 13 10 9 9 8 8 8 7 8 10 11 12 13 16 17 18 19 19 18 14 7 9 18 21 19 22 24 22 22 25 32 34 32 36 35 31 31 25 19 24 26 17 18 32 37 33 39 42 37 38 36 31 37 40 32 25 17 11 8 4 4 3 3 6 11 5 1 3 7 14 20 23 26 28 27 26 26 27 27 28 28 27 26
17 15 13 13 14 15 13 11 10 8 9 9 10 14 17 16 14 14 17 18 17 20 21 16 7 5 7 16 19 16 20 20 17 22 27 30 32 32 35 36 35 35 28 21 22 24 18 17 29 34 30 36 39 37 37 31 29 37 35 32 31 21 12 10 7 6 4 3 4 9 7 11 10 11 17 22 25 29 28 25 25 27 29 30 29 29 27 26
15 13 12 12 14 16 16 14 12 11 10 10 14 18 20 19 17 17 19 21 20 21 19 12 2 7 8 14 17 15 20 20 16 21 25 25 29 33 36 36 37 36 29 23 23 24 17 15 29 38 32 33 36 36 35 29 27 34 35 36 31 17 14 14 10 6 5 3 5 12 17 20 16 16 20 23 26 28 26 23 24 27 30 30 29 29 27 27
15 13 13 13 15 18 18 17 17 15 11 13 19 22 21 21 18 18 20 22 21 20 16 9 2 8 9 12 14 14 19 19 17 20 24 23 27 35 38 35 36 36 29 23 22 24 17 12 26 40 34 31 35 36 34 29 27 29 32 36 28 15 16 17 10 6 7 3 3 10 21 21 20 24 26 27 28 28 26 25 26 29 30 31 30 29 29 29
17 15 15 15 16 18 19 19 21 19 14 16 22 22 21 23 22 21 21 21 20 16 12 7 3 7 9 9 11 15 18 19 20 20 23 23 24 35 40 32 31 35 32 26 19 20 19 8 15 34 36 28 28 32 33 30 29 29 29 31 28 20 20 19 12 9 9 5 1 6 13 13 19 24 24 27 30 29 28 27 28 31 31 30 29 28 30 30
18 16 16 16 16 18 20 21 22 22 20 20 23 22 22 24 22 18 16 17 16 10 6 5 3 6 10 10 12 16 17 18 22 21 22 24 22 33 41 29 26 31 30 25 19 20 21 10 12 30 35 25 21 29 36 31 28 31 30 29 29 22 19 17 16 16 13 6 3 4 3 8 20 24 21 26 31 29 28 26 28 32 31 29 26 25 27 28
20 18 16 16 16 17 20 22 22 22 22 23 24 23 22 21 17 10 7 9 9 7 6 5 3 7 12 11 11 14 15 17 22 19 21 26 22 28 38 31 25 25 24 26 22 18 18 14 17 27 28 27 26 31 38 29 21 30 30 26 31 29 18 9 9 18 19 8 6 8 2 4 18 25 24 25 28 29 27 24 27 31 32 30 27 24 25 27
21 20 17 17 18 19 20 21 22 23 23 25 24 19 15 12 9 4 1 1 2 2 4 4 5 9 14 11 7 9 12 18 21 18 20 26 23 26 34 30 23 17 19 27 21 14 15 15 20 28 27 31 33 32 38 29 19 28 30 23 29 32 24 10 4 15 20 8 7 12 5 2 15 27 27 23 25 29 27 23 26 31 32 31 28 25 25 27
21 20 18 17 17 19 20 21 23 25 25 23 19 13 8 7 9 8 6 6 5 2 2 3 6 9 11 8 4 6 13 19 17 17 22 22 23 30 31 26 19 14 19 26 18 12 16 12 19 29 24 28 33 31 36 34 23 28 33 25 28 33 30 19 9 15 21 12 9 10 3 3 16 29 31 25 26 31 28 24 26 30 34 31 27 25 25 27
22 20 19 19 18 17 18 20 22 24 22 16 12 10 8 8 12 11 8 8 7 4 3 4 5 7 7 4 5 7 15 18 14 17 21 16 21 31 27 22 19 17 21 25 18 16 18 13 19 24 13 16 23 21 28 33 25 26 31 27 29 33 32 25 16 16 18 15 15 10 2 7 19 28 32 28 29 32 29 27 25 26 31 31 27 24 23 25
26 23 23 22 18 18 19 19 20 20 18 14 10 10 9 9 12 12 9 8 5 2 4 6 5 7 7 5 7 10 15 16 12 18 21 14 20 29 26 23 20 18 22 22 17 18 17 12 15 17 7 7 12 12 23 33 25 20 26 28 28 28 26 27 24 17 12 14 17 10 6 18 23 22 27 27 27 30 29 28 26 24 26 27 26 24 24 25
29 26 27 25 19 20 23 22 23 21 17 13 11 10 9 10 11 9 9 7 2 1 3 4 3 7 7 5 7 11 15 16 12 16 21 17 20 26 26 24 20 17 19 19 18 18 15 12 13 14 10 11 16 17 24 31 22 16 23 28 26 22 19 22 24 18 11 11 12 6 10 25 24 18 24 26 24 28 30 29 27 26 26 26 25 24 24 23
29 25 27 27 22 23 26 25 23 20 15 11 10 10 9 10 10 7 6 5 1 1 3 6 6 7 5 4 7 6 10 16 11 11 18 20 21 23 23 22 20 20 19 17 18 15 12 14 15 15 12 12 19 24 25 29 24 16 20 25 24 23 20 18 21 19 14 8 6 8 14 22 22 19 23 23 22 25 26 25 26 27 27 26 24 23 23 23
29 25 24 24 24 26 29 28 24 18 13 8 7 9 9 8 7 5 4 2 2 1 4 8 6 1 1 4 5 0 7 15 11 10 18 20 19 22 24 22 20 21 20 16 14 10 11 16 16 14 13 12 19 25 25 30 27 17 18 23 23 25 25 21 19 19 18 11 6 16 18 18 21 22 22 21 22 23 21 22 24 25 25 25 23 23 23 24
29 27 23 22 23 25 27 29 28 23 18 11 7 8 9 8 6 4 4 1 3 1 2 2 4 6 7 7 7 5 10 13 9 11 18 17 17 22 25 24 21 20 18 15 11 7 11 16 14 13 12 11 18 27 28 30 29 22 23 24 22 25 27 24 18 14 18 18 12 13 14 15 20 24 24 22 21 22 21 22 23 23 23 23 22 21 21 22
31 31 27 24 23 23 25 29 30 27 24 19 11 7 7 6 4 3 3 2 1 2 2 6 8 5 11 10 9 11 13 10 7 13 15 11 16 23 22 22 23 21 18 17 13 8 11 16 12 10 10 9 9 19 28 32 30 27 28 26 21 23 27 25 20 14 14 19 18 12 10 13 17 20 22 21 19 21 23 24 25 23 22 21 21 21 20 21
28 29 29 27 25 24 25 29 31 31 30 26 18 11 6 4 4 4 4 2 1 1 5 9 7 4 10 10 7 8 11 10 13 18 16 11 17 22 17 17 21 22 19 18 13 9 12 13 4 3 6 6 1 8 18 25 26 27 31 29 22 21 24 24 23 20 14 12 14 15 14 15 18 18 18 19 20 21 23 25 25 24 23 23 23 22 22 22
24 26 27 26 25 24 24 26 29 32 32 29 25 17 9 6 7 9 7 3 1 1 5 7 7 5 8 12 8 4 10 14 17 19 16 14 17 19 17 15 16 20 19 17 14 9 10 6 3 2 5 4 4 3 8 10 13 17 25 28 23 21 20 16 18 22 20 13 12 15 13 12 18 21 21 22 22 22 23 25 24 24 24 23 21 19 19 19
Wind_Direction
300 298 296 293 291 289 287 285 282 280 277 275 273 271 270 268 266 263 261 259 258 256 255 253 252 251 250 249 249 249 247 247 247 247 247 247 248 247 246 242 242 242 240 239 239 240 240 239 237 233 231 231 232 232 230 229 222 215 216 225 230 231 233 235 236 240 250 255 261 267 261 256 249 230 231 250 267 267 260 262 260 255 247 249 253 242 243 251
303 301 298 296 293 290 288 286 284 282 280 277 275 272 270 269 268 267 265 263 260 258 255 253 252 251 251 249 249 248 247 247 247 248 248 247 246 246 246 243 241 240 237 235 234 235 234 233 229 225 225 225 227 225 221 221 214 207 209 226 232 232 236 237 235 239 247 245 251 263 246 216 202 201 212 240 270 267 258 259 261 253 241 241 241 227 234 246
308 305 302 299 296 293 289 286 283 281 280 278 277 275 273 271 268 267 267 266 264 261 259 255 252 251 250 249 248 248 247 247 247 248 248 246 244 244 243 240 237 234 232 230 228 229 227 223 217 214 218 219 220 217 214 213 210 207 207 222 234 236 238 235 228 231 239 240 250 261 235 207 204 225 229 232 248 250 262 260 259 251 239 237 238 229 232 241
313 310 307 303 300 297 293 289 285 283 280 278 276 274 273 272 271 269 267 266 265 264 261 258 254 251 250 249 247 247 246 247 248 247 244 242 242 242 240 238 234 231 228 224 222 223 222 218 211 205 209 215 214 211 211 210 208 208 209 220 230 236 240 235 223 222 229 236 253 263 243 228 219 227 251 254 253 255 269 269 267 257 248 244 241 238 238 242
316 313 310 307 304 301 297 294 289 286 282 279 277 273 272 271 271 270 269 268 266 265 262 259 256 253 251 249 248 246 245 246 247 245 242 240 241 241 240 238 234 230 225 219 218 217 215 214 211 204 203 209 209 208 209 207 208 209 214 226 228 226 234 237 224 217 220 232 255 257 229 201 184 149 268 237 254 255 258 272 283 271 256 250 246 245 246 246
319 317 314 311 308 305 302 298 294 290 285 282 278 275 273 270 269 269 269 269 268 267 264 261 256 254 254 251 248 246 241 238 242 242 240 239 239 239 239 236 232 230 224 217 216 214 210 207 209 206 202 203 204 207 209 204 206 212 216 226 231 227 225 225 224 222 224 240 260 245 197 161 172 299 283 234 262 257 253 273 286 267 254 252 246 243 247 250
323 322 320 317 314 311 307 303 299 295 290 286 281 278 275 272 270 268 268 268 268 268 266 264 259 255 254 252 250 247 239 230 231 234 234 236 236 236 236 233 230 227 223 216 213 212 208 203 205 207 202 200 202 206 208 203 204 215 218 220 229 236 231 223 219 223 233 246 257 239 214 187 172 286 266 240 264 254 251 260 243 210 218 234 237 237 242 246
327 325 324 322 319 316 313 308 304 299 295 290 285 281 277 274 271 268 267 266 266 266 266 265 262 258 254 252 250 248 241 231 230 231 230 233 233 232 231 228 226 224 221 216 211 210 206 203 202 202 200 200 203 205 203 201 206 216 220 220 226 234 238 234 221 222 234 247 258 257 248 229 197 268 261 248 263 261 257 255 244 223 203 198 206 209 216 231
328 326 325 323 320 318 315 311 307 302 298 293 289 285 281 277 273 269 267 264 264 263 264 263 262 261 256 253 249 249 248 223 224 230 225 225 224 224 225 222 221 220 217 214 210 208 205 203 200 197 195 194 202 208 201 201 211 217 220 222 229 231 233 237 232 231 240 252 261 261 256 248 238 254 261 254 259 265 266 257 259 259 236 207 202 204 207 224
328 327 325 323 321 318 316 312 308 303 299 294 290 286 283 279 275 271 267 264 262 260 260 260 260 259 256 255 250 248 242 202 215 224 221 223 221 218 221 220 219 218 214 211 209 207 205 202 198 194 192 188 195 209 207 206 209 213 221 224 230 235 232 230 232 236 245 256 259 259 262 265 257 251 251 252 255 260 263 258 258 259 251 239 238 237 229 225
329 328 326 325 322 319 316 313 309 304 299 294 290 285 282 278 273 269 266 264 262 259 257 257 256 255 254 254 248 240 222 220 225 224 222 226 224 217 219 219 217 216 211 207 208 207 205 201 195 192 192 192 190 202 211 211 210 209 218 227 229 235 237 233 227 227 242 255 251 251 260 265 257 243 242 246 252 256 256 255 253 251 253 259 260 255 247 234
330 329 328 327 324 320 316 312 309 306 302 297 291 285 280 276 272 266 263 261 260 259 256 255 253 252 252 249 245 235 218 232 235 231 231 234 229 217 217 219 216 215 210 204 206 206 205 200 195 193 192 193 191 201 211 209 213 214 218 232 235 234 234 234 226 219 234 251 240 242 249 245 236 234 235 238 244 251 251 247 247 250 262 271 271 267 258 252
331 331 330 329 325 321 315 310 307 305 303 300 294 288 281 274 270 266 263 259 257 256 255 254 251 250 251 248 245 241 230 230 234 237 239 242 236 222 216 217 216 217 214 206 202 202 204 200 197 197 190 190 194 201 208 204 212 219 220 232 238 235 231 233 228 220 232 241 229 234 240 228 227 230 233 237 239 242 244 244 247 258 268 270 269 269 258 250
331 332 331 329 326 321 314 307 304 303 303 301 297 292 285 278 271 267 264 261 258 255 252 252 252 251 253 251 249 246 239 231 231 236 237 238 237 228 217 215 216 217 217 212 202 196 199 199 200 200 190 187 192 197 202 202 213 220 220 228 234 236 233 230 227 221 229 236 230 235 239 231 229 230 233 238 237 234 238 243 248 256 264 265 262 263 252 230
329 329 329 329 325 320 315 309 303 301 300 300 298 294 289 285 278 271 266 263 260 258 254 252 253 254 256 257 254 248 241 235 234 236 238 234 233 230 217 213 215 215 219 217 207 196 192 195 200 201 193 185 187 198 208 210 219 220 221 227 227 231 233 227 224 222 224 230 228 227 231 233 231 230 232 235 234 229 231 239 245 252 259 263 258 253 244 223
328 329 330 329 325 320 317 313 308 303 299 297 296 296 293 289 284 278 272 266 262 259 256 254 254 255 257 259 258 249 243 242 241 237 237 234 231 228 218 214 212 210 215 216 212 201 191 191 198 201 196 188 189 200 214 224 230 221 219 224 221 222 227 224 224 221 218 221 219 216 223 228 225 227 232 233 234 228 225 232 241 249 257 260 255 248 245 233
330 332 333 330 326 322 318 315 311 305 300 295 294 295 295 291 287 282 277 272 266 260 256 254 251 254 259 263 265 260 251 249 246 238 236 233 229 223 215 215 213 208 207 209 210 201 191 190 195 202 199 191 193 203 219 230 228 219 215 220 219 217 217 216 218 217 214 216 214 212 220 228 224 225 233 234 232 228 226 233 241 247 255 258 252 245 244 236
332 332 332 329 326 324 320 315 310 304 299 295 294 293 293 293 289 284 283 281 273 263 257 252 245 250 265 277 256 246 244 239 234 230 231 229 226 216 209 212 211 207 203 203 205 196 190 190 190 200 204 198 197 204 214 217 214 213 213 214 215 213 212 212 214 214 211 214 217 211 213 224 225 222 230 231 227 225 226 234 242 246 251 253 251 242 233 228
332 332 330 327 326 325 322 318 310 302 297 295 294 292 293 294 290 287 288 284 273 264 261 260 250 244 240 87 127 182 206 226 223 220 218 219 222 213 205 208 205 198 198 203 203 195 188 188 189 199 206 201 197 200 209 212 207 210 211 211 212 211 213 214 214 215 209 212 217 210 208 217 219 215 220 223 221 221 224 232 239 243 245 241 241 235 221 216
333 331 330 328 325 324 323 320 313 303 298 296 293 291 290 293 294 293 289 280 273 267 263 260 258 250 232 197 131 145 164 193 208 216 207 198 210 210 200 200 196 185 193 205 203 195 189 192 198 201 203 201 198 199 207 212 205 205 210 211 210 211 216 217 218 220 213 212 211 209 212 211 210 212 216 222 222 220 224 231 238 241 239 229 225 226 218 213
333 331 331 328 324 324 323 320 314 305 301 299 294 291 292 298 300 294 286 276 270 268 265 255 255 259 245 226 197 169 173 185 187 197 203 188 186 205 200 192 189 184 189 200 200 196 194 203 207 203 203 203 203 202 203 208 203 202 210 209 208 213 216 216 220 221 218 215 208 206 209 200 203 210 210 217 220 219 227 233 242 243 232 219 214 219 219 215
333 331 331 328 325 326 323 318 311 304 302 299 295 294 295 293 284 280 282 277 268 263 266 263 253 255 254 237 206 189 196 198 192 189 197 192 183 193 197 189 189 187 185 189 194 197 200 208 209 204 204 205 206 206 201 207 210 212 216 211 207 212 215 216 219 222 217 210 202 202 202 190 197 203 194 204 211 215 226 230 240 242 227 217 213 217 216 210
332 332 331 329 329 329 326 320 311 307 305 300 296 296 293 283 272 274 281 279 275 265 260 264 260 254 258 245 207 199 208 204 200 192 189 198 193 188 190 191 191 186 185 189 191 197 206 211 209 203 204 203 204 207 205 209 216 221 223 219 210 206 213 217 215 221 216 204 197 196 192 178 179 184 180 190 203 209 212 214 224 226 219 216 214 217 214 208
333 333 332 331 333 335 332 324 314 311 309 305 301 297 294 286 279 279 278 279 279 271 261 261 260 255 253 242 208 207 214 206 195 182 183 204 201 191 188 192 193 187 190 196 194 200 210 213 208 202 203 201 200 206 208 210 217 222 224 226 219 208 212 215 218 220 202 190 193 188 170 157 168 178 185 186 194 201 199 203 213 215 213 211 211 213 210 207
333 333 332 333 336 337 334 325 318 316 312 310 309 304 298 289 287 285 282 282 280 277 276 264 255 253 247 235 216 211 218 215 190 170 182 206 203 195 188 189 196 192 191 198 201 207 213 215 208 199 197 201 202 206 206 207 218 226 225 225 222 213 211 217 222 204 170 158 187 190 160 138 175 185 191 190 191 198 201 207 211 214 213 208 205 204 200 200
333 332 331 334 337 338 335 327 323 322 316 312 307 304 299 293 296 295 291 285 282 291 293 263 247 249 241 228 215 208 222 222 190 167 180 196 196 198 191 187 198 197 191 197 206 212 214 214 210 199 195 202 205 208 207 205 218 229 223 218 218 216 217 223 221 195 165 155 183 198 189 155 180 194 196 197 199 203 210 213 212 211 208 203 198 197 195 193
332 331 330 333 337 339 339 336 331 327 322 310 297 297 296 300 301 298 301 282 287 321 317 259 245 244 237 227 210 204 216 214 191 176 177 184 189 195 197 192 199 201 192 193 208 213 210 206 204 198 197 204 205 206 205 202 215 224 214 212 221 220 220 228 227 213 190 175 175 192 198 175 180 197 196 199 203 206 212 213 209 205 201 197 193 194 195 190
332 329 330 333 336 337 342 346 342 334 326 311 298 294 289 303 300 292 318 266 287 341 339 242 244 249 244 231 215 210 211 204 200 195 181 180 187 191 201 199 200 205 195 195 211 211 205 202 199 197 198 203 204 204 201 201 214 217 210 214 226 227 230 238 236 216 189 178 175 189 198 184 178 192 192 199 205 208 210 207 205 202 198 195 191 194 199 196
333 328 328 332 336 335 334 348 353 345 338 327 314 305 291 304 290 253 223 258 286 316 308 193 191 233 246 222 220 218 210 195 204 205 187 182 184 186 202 200 198 207 200 203 215 210 205 204 199 198 200 203 206 205 201 203 212 213 212 220 228 236 240 239 242 213 181 175 183 186 190 182 165 188 189 195 206 210 207 203 204 204 200 196 193 195 199 200
333 328 326 329 335 335 326 334 354 357 354 347 335 324 308 289 232 218 204 260 287 304 306 230 181 212 224 206 212 214 208 197 188 197 192 186 182 183 198 198 198 209 206 208 217 214 208 205 201 202 204 204 206 206 203 203 211 213 215 224 232 241 240 235 244 228 201 185 186 180 184 186 164 187 192 201 218 216 207 201 203 206 202 197 195 196 199 201
331 329 325 325 329 334 327 323 338 359 9 8 10 342 280 251 257 239 210 286 297 301 304 242 196 217 208 202 210 208 209 203 189 192 197 188 185 190 196 201 204 211 214 215 217 215 207 202 204 206 206 203 202 205 207 207 209 212 214 222 231 235 233 240 246 217 202 206 194 185 188 192 183 191 198 211 228 224 215 209 207 207 204 197 195 197 199 196
329 328 325 322 322 327 328 322 321 329 352 24 36 358 277 270 260 243 252 290 301 305 311 295 250 239 220 214 213 206 210 207 198 204 203 190 190 196 195 197 200 203 213 212 210 213 208 202 202 205 204 202 199 202 207 209 208 208 212 217 221 217 218 233 238 195 191 262 199 198 203 209 207 203 201 206 217 224 224 219 219 216 207 198 195 196 196 193
327 327 324 317 315 318 323 325 319 304 300 328 19 287 262 270 262 251 261 275 281 292 305 315 312 270 235 226 208 202 212 208 197 197 199 193 193 198 195 191 194 201 204 200 202 209 208 202 201 202 201 198 198 199 201 206 208 208 211 213 207 171 186 212 181 160 341 56 171 190 203 227 226 211 209 212 219 228 222 219 225 223 212 204 198 195 196 197
327 327 322 312 308 310 315 320 314 302 299 295 280 267 252 249 255 265 273 274 280 290 300 314 317 293 240 222 199 195 207 204 195 194 197 194 192 198 201 199 199 201 197 198 205 206 199 194 197 198 195 194 198 198 198 203 207 208 209 211 211 203 193 195 159 129 125 91 152 169 181 256 239 218 221 222 219 215 210 212 219 217 210 205 199 197 199 200
328 328 325 315 306 305 306 313 314 303 291 283 268 257 247 248 259 272 281 280 286 295 303 313 307 278 231 213 196 195 206 201 196 198 195 191 191 197 204 202 196 193 194 204 206 202 203 197 194 197 196 194 196 197 197 200 204 207 208 212 221 224 197 168 152 157 135 66 155 168 153 127 183 182 195 201 198 195 199 206 210 207 202 201 201 200 200 201
332 333 334 327 316 307 301 306 316 301 284 279 267 258 253 260 272 277 283 286 293 302 307 315 294 218 212 206 197 198 204 198 190 189 187 191 194 197 201 198 190 187 191 200 197 193 203 200 192 197 198 195 196 197 199 202 201 202 206 209 215 223 209 170 151 181 178 73 188 192 139 121 128 141 166 180 185 188 194 199 203 203 200 203 206 202 201 202
338 342 344 339 331 322 311 307 308 300 290 275 264 263 265 272 280 281 286 289 298 309 313 323 285 187 189 198 201 199 196 195 194 188 185 192 196 196 200 198 190 186 185 191 196 191 192 189 190 197 197 193 194 196 202 208 202 199 203 207 209 217 215 191 161 170 173 128 217 193 152 142 143 146 165 179 181 183 190 193 197 202 203 205 207 205 206 205
347 351 352 347 342 336 325 313 305 302 296 276 269 270 273 279 281 283 288 291 300 311 311 310 243 180 186 194 200 199 192 194 198 188 181 189 198 195 196 195 193 192 187 185 192 192 190 183 190 199 200 193 195 202 208 208 200 203 208 208 209 206 196 184 160 167 173 151 256 182 162 165 167 159 164 177 182 184 185 185 192 201 205 208 210 210 212 209
352 356 358 356 348 340 330 317 307 302 293 279 277 279 283 287 290 290 294 299 302 306 305 296 214 180 192 192 195 197 195 198 200 188 179 187 199 194 190 193 195 193 185 182 192 199 201 193 179 193 199 196 195 203 207 199 193 203 212 212 213 206 193 186 175 175 171 160 259 175 167 183 188 181 178 182 187 186 182 183 191 199 205 210 212 212 213 212
356 355 357 0 351 338 331 323 314 306 297 293 295 296 296 299 305 305 297 294 291 282 279 279 235 196 191 194 205 199 197 203 199 189 180 182 193 191 186 191 197 190 184 193 207 204 198 190 169 186 196 204 205 199 198 196 196 204 211 210 205 197 192 194 194 192 183 163 173 186 197 205 202 209 210 196 191 189 186 187 193 200 207 211 211 215 216 217
359 355 352 355 349 338 331 326 323 316 313 320 324 322 318 314 319 319 272 265 274 259 254 259 229 195 189 200 217 195 189 203 194 184 180 181 190 193 188 192 200 196 196 202 208 203 185 168 171 185 197 208 208 194 188 193 208 213 216 211 197 193 195 190 192 197 191 172 167 187 244 223 200 208 211 201 197 193 191 195 197 202 209 211 215 222 222 220
359 358 353 349 345 340 334 329 331 330 332 341 344 341 340 338 344 8 134 192 337 258 250 246 209 194 189 195 217 194 191 205 194 177 178 183 188 191 190 191 193 193 195 195 201 207 183 160 170 185 196 203 203 194 188 197 222 220 221 216 196 199 208 208 193 195 193 192 186 187 196 184 186 193 197 200 199 191 189 197 202 205 209 213 220 224 222 221
360 358 356 352 346 341 336 336 343 348 351 358 1 359 7 21 27 39 66 66 50 63 193 200 194 196 190 182 208 213 199 204 199 178 175 182 186 189 188 182 180 192 197 196 202 196 183 182 181 184 195 201 202 204 205 212 224 215 215 213 198 203 216 222 217 191 192 199 185 175 171 155 177 185 189 193 192 185 186 196 206 208 209 214 219 221 221 222
6 4 1 358 351 345 340 341 350 360 7 14 18 10 12 27 27 28 52 76 72 78 137 160 180 202 212 231 285 252 202 199 200 180 175 181 187 188 186 177 183 199 194 194 199 183 185 204 182 173 184 194 193 207 215 218 223 214 211 209 199 202 214 226 224 192 189 198 187 177 141 153 171 182 187 189 186 184 188 199 209 213 212 213 216 217 221 224
10 11 9 4 359 357 356 348 348 1 13 18 25 20 15 19 21 27 52 75 78 94 155 156 185 220 227 240 259 243 209 202 202 182 173 176 185 185 180 173 179 190 188 194 198 182 189 204 172 164 173 179 183 199 205 208 216 217 212 206 196 197 210 222 219 196 183 190 186 180 141 150 160 173 182 183 184 188 194 199 204 213 218 220 221 221 224 226
10 9 7 6 2 359 1 355 345 352 5 12 23 28 22 18 20 30 46 53 55 216 165 140 180 201 182 180 230 234 208 195 196 184 173 172 185 187 183 179 179 182 186 193 192 185 197 210 192 189 199 195 200 202 198 203 211 215 211 205 201 206 216 218 213 199 179 182 186 181 151 154 156 168 180 185 190 191 193 195 200 210 218 223 227 227 228 231
14 10 3 2 359 357 4 5 355 356 8 11 15 25 27 25 23 28 33 33 59 127 113 117 139 173 181 220 247 247 193 180 181 182 175 174 184 186 183 182 183 183 182 178 176 183 206 216 214 219 215 196 195 197 200 209 216 217 209 204 208 221 226 224 220 204 183 183 175 151 154 158 158 167 179 184 189 189 190 195 203 212 217 221 226 227 228 233
14 15 8 2 2 4 9 13 12 19 33 33 24 26 28 24 18 16 29 65 173 97 126 147 155 179 318 229 227 135 147 168 173 175 173 171 173 175 176 179 182 185 181 171 166 180 211 216 221 226 219 195 190 196 203 210 216 217 204 201 210 223 227 230 233 210 191 201 164 141 154 166 164 169 177 182 191 196 200 205 210 217 223 226 227 226 229 235
11 15 17 14 14 15 15 15 15 20 32 41 44 33 23 18 21 36 46 125 194 226 186 149 27 43 94 150 190 160 147 163 170 170 171 169 171 175 176 175 172 175 176 169 171 192 205 207 216 226 231 232 217 210 203 201 208 207 199 201 210 222 227 228 234 222 201 208 201 159 163 174 168 174 182 188 199 206 204 206 213 222 229 233 235 233 236 241
9 9 14 18 20 21 22 22 18 15 22 33 36 36 35 22 16 34 23 7 204 244 321 21 29 94 139 160 191 175 162 164 163 169 173 176 179 179 171 159 156 164 178 185 192 202 193 194 211 238 254 271 233 198 187 189 197 197 198 207 212 217 224 225 227 229 208 205 208 193 181 175 173 184 190 190 199 205 204 208 217 226 235 242 243 242 243 247
8 7 8 13 18 19 24 31 26 18 19 24 20 21 41 37 16 25 22 34 132 287 356 23 33 116 152 172 196 169 153 147 148 165 174 171 177 180 169 154 156 162 176 191 197 195 186 191 227 275 236 266 340 136 160 179 191 195 201 212 214 208 215 225 229 230 221 206 192 176 170 174 182 200 211 205 203 207 209 213 218 227 238 244 246 248 249 250
5 6 6 11 16 17 21 29 28 21 18 17 14 13 30 52 48 47 46 52 118 4 11 28 34 63 137 174 195 152 140 145 150 166 175 169 179 187 173 162 172 174 179 195 201 192 189 202 340 60 175 245 283 140 127 158 188 198 203 211 211 202 203 217 226 223 222 220 198 176 171 187 195 201 207 207 206 210 214 216 220 227 235 241 247 251 251 251
Height
3074 3073 3072 3071 3070 3069 3068 3067 3067 3066 3066 3066 3066 3066 3066 3066 3066 3066 3066 3067 3067 3068 3069 3071 3072 3073 3074 3075 3076 3077 3080 3081 3083 3083 3085 3091 3093 3092 3094 3097 3099 3102 3105 3108 3111 3113 3117 3121 3124 3128 3130 3132 3133 3136 3140 3141 3144 3145 3145 3144 3142 3143 3145 3148 3151 3152 3153 3154 3155 3155 3155 3156 3155 3153 3152 3152 3153 3153 3153 3153 3154 3155 3154 3155 3157 3158 3159 3160
3072 3071 3069 3068 3067 3067 3066 3065 3064 3063 3063 3063 3063 3062 3063 3063 3063 3063 3063 3063 3064 3064 3066 3067 3069 3069 3070 3071 3072 3073 3076 3077 3078 3080 3084 3089 3088 3088 3091 3094 3096 3099 3101 3104 3107 3110 3113 3117 3121 3124 3126 3128 3130 3133 3136 3137 3140 3140 3140 3140 3137 3140 3143 3146 3148 3150 3151 3152 3154 3153 3152 3153 3153 3152 3150 3151 3153 3151 3151 3151 3153 3154 3153 3154 3155 3156 3158 3158
3070 3069 3067 3066 3065 3064 3063 3063 3062 3061 3060 3060 3060 3059 3059 3059 3059 3060 3060 3060 3061 3061 3062 3064 3065 3066 3066 3067 3067 3069 3072 3073 3075 3078 3082 3084 3084 3085 3087 3089 3092 3095 3097 3100 3104 3107 3110 3114 3117 3120 3122 3124 3126 3130 3132 3134 3136 3136 3137 3136 3134 3139 3142 3144 3146 3148 3149 3150 3152 3152 3150 3150 3150 3150 3150 3151 3153 3151 3150 3148 3150 3152 3151 3152 3153 3155 3156 3156
3068 3066 3065 3064 3063 3062 3061 3060 3059 3059 3058 3057 3057 3057 3056 3056 3056 3057 3057 3057 3057 3058 3059 3061 3062 3062 3062 3063 3064 3065 3068 3070 3071 3074 3078 3079 3080 3081 3083 3086 3089 3091 3094 3097 3100 3103 3106 3110 3112 3115 3118 3120 3123 3126 3128 3130 3132 3133 3133 3132 3134 3139 3140 3141 3144 3145 3146 3148 3151 3149 3147 3149 3149 3150 3150 3151 3152 3152 3149 3145 3148 3150 3149 3151 3152 3154 3154 3154
3066 3064 3063 3062 3061 3060 3059 3058 3057 3056 3056 3055 3054 3054 3054 3054 3054 3054 3054 3054 3054 3055 3056 3058 3059 3059 3059 3059 3060 3062 3065 3067 3067 3069 3073 3075 3077 3078 3081 3084 3086 3088 3091 3094 3097 3099 3103 3106 3109 3110 3113 3116 3120 3122 3123 3126 3130 3131 3130 3130 3134 3137 3138 3140 3142 3143 3144 3146 3150 3148 3144 3145 3148 3150 3150 3149 3149 3150 3149 3145 3147 3149 3148 3149 3150 3152 3153 3153
3063 3062 3061 3060 3059 3058 3057 3056 3055 3054 3053 3052 3052 3051 3051 3051 3051 3051 3051 3051 3051 3052 3053 3054 3056 3056 3056 3056 3057 3058 3061 3064 3063 3065 3069 3072 3074 3076 3078 3081 3084 3086 3088 3091 3093 3096 3099 3103 3106 3107 3109 3112 3115 3117 3120 3125 3127 3128 3128 3130 3133 3135 3136 3138 3139 3141 3143 3145 3147 3146 3142 3143 3146 3148 3148 3147 3147 3148 3147 3146 3146 3147 3147 3149 3149 3150 3152 3153
3061 3060 3059 3058 3057 3056 3055 3054 3053 3052 3051 3050 3049 3049 3048 3048 3048 3048 3048 3048 3048 3049 3049 3051 3052 3053 3053 3054 3054 3055 3057 3059 3059 3062 3066 3068 3071 3073 3075 3078 3081 3082 3085 3087 3090 3092 3096 3100 3102 3104 3106 3109 3112 3115 3119 3123 3125 3125 3126 3128 3130 3132 3134 3135 3136 3137 3140 3142 3143 3143 3142 3142 3144 3146 3145 3144 3145 3145 3145 3145 3144 3145 3146 3148 3149 3151 3152 3153
3059 3058 3057 3056 3055 3054 3053 3052 3051 3050 3049 3048 3047 3046 3046 3046 3046 3046 3046 3046 3046 3046 3046 3047 3048 3049 3050 3051 3051 3051 3053 3056 3058 3060 3062 3065 3067 3069 3071 3074 3077 3079 3082 3084 3087 3090 3094 3097 3099 3102 3104 3106 3110 3113 3117 3121 3122 3122 3124 3127 3129 3130 3132 3134 3134 3133 3136 3138 3139 3141 3141 3141 3143 3144 3142 3142 3143 3142 3144 3144 3143 3145 3146 3146 3148 3150 3151 3150
3057 3056 3055 3054 3053 3052 3051 3050 3049 3048 3047 3046 3045 3044 3044 3043 3043 3043 3043 3043 3043 3043 3043 3044 3045 3046 3046 3047 3048 3047 3051 3056 3056 3055 3056 3057 3060 3064 3067 3071 3074 3076 3079 3082 3085 3088 3090 3093 3097 3100 3102 3105 3110 3112 3115 3118 3118 3119 3122 3125 3127 3128 3130 3132 3132 3131 3134 3136 3136 3137 3138 3139 3141 3143 3141 3141 3142 3140 3143 3145 3144 3145 3146 3147 3149 3150 3149 3147
3055 3054 3052 3051 3050 3049 3048 3047 3046 3045 3044 3043 3042 3042 3041 3041 3040 3040 3040 3040 3040 3041 3041 3041 3042 3042 3043 3044 3044 3045 3050 3053 3049 3047 3049 3051 3054 3061 3066 3069 3071 3073 3076 3079 3082 3084 3087 3091 3096 3100 3102 3104 3107 3111 3113 3114 3115 3118 3122 3124 3125 3126 3128 3129 3129 3129 3132 3134 3134 3133 3134 3136 3139 3141 3140 3139 3140 3139 3141 3144 3143 3144 3146 3148 3151 3151 3150 3148
3053 3051 3049 3048 3047 3045 3044 3043 3042 3042 3041 3040 3040 3039 3039 3038 3038 3037 3037 3037 3037 3038 3038 3039 3039 3039 3039 3040 3039 3043 3049 3048 3045 3045 3046 3049 3055 3061 3064 3065 3068 3070 3073 3076 3079 3082 3085 3090 3095 3098 3099 3101 3104 3108 3110 3112 3114 3117 3120 3122 3122 3124 3125 3126 3126 3126 3129 3131 3131 3131 3131 3134 3137 3140 3139 3138 3139 3139 3139 3142 3143 3144 3146 3148 3150 3151 3150 3149
3051 3050 3048 3046 3044 3042 3040 3039 3038 3037 3037 3036 3036 3036 3035 3035 3035 3034 3034 3034 3034 3035 3035 3036 3036 3036 3036 3035 3035 3043 3047 3045 3044 3045 3044 3049 3056 3059 3060 3062 3065 3067 3069 3073 3076 3080 3084 3088 3093 3094 3095 3098 3102 3105 3106 3109 3113 3115 3117 3119 3120 3121 3121 3122 3123 3124 3127 3129 3129 3129 3130 3133 3137 3137 3136 3137 3138 3137 3138 3140 3142 3143 3146 3148 3149 3150 3150 3151
3050 3049 3047 3045 3043 3040 3038 3036 3034 3033 3032 3032 3031 3032 3031 3031 3031 3031 3031 3031 3031 3032 3032 3033 3033 3033 3032 3029 3033 3041 3044 3042 3043 3042 3044 3049 3053 3055 3058 3059 3062 3064 3066 3069 3073 3078 3082 3086 3089 3091 3093 3096 3099 3102 3104 3107 3111 3112 3114 3115 3116 3118 3116 3118 3121 3122 3125 3126 3127 3127 3128 3131 3134 3133 3134 3136 3136 3136 3137 3139 3141 3143 3145 3147 3148 3149 3150 3150
3049 3048 3045 3043 3041 3039 3037 3034 3032 3030 3029 3028 3028 3028 3027 3028 3028 3028 3028 3028 3029 3028 3029 3030 3029 3030 3027 3026 3034 3039 3039 3040 3039 3038 3042 3047 3049 3052 3056 3057 3060 3062 3065 3067 3070 3074 3078 3084 3088 3090 3091 3092 3094 3099 3102 3105 3108 3109 3111 3111 3112 3112 3111 3115 3118 3120 3122 3123 3126 3127 3127 3129 3130 3131 3133 3135 3135 3135 3137 3139 3140 3142 3144 3145 3146 3147 3147 3147
3048 3046 3043 3041 3039 3037 3035 3033 3030 3028 3026 3025 3025 3024 3024 3024 3024 3024 3024 3025 3025 3025 3026 3027 3027 3027 3023 3023 3032 3035 3034 3035 3035 3038 3041 3044 3046 3048 3053 3056 3058 3062 3064 3066 3069 3071 3075 3080 3084 3086 3088 3090 3093 3096 3098 3100 3103 3105 3106 3106 3106 3107 3109 3113 3116 3118 3120 3121 3124 3126 3126 3126 3127 3129 3131 3133 3133 3135 3137 3138 3139 3140 3141 3142 3143 3144 3144 3146
3046 3043 3040 3038 3036 3034 3032 3030 3028 3026 3024 3023 3022 3021 3021 3021 3020 3021 3021 3021 3022 3022 3023 3024 3024 3024 3019 3021 3028 3031 3031 3032 3034 3038 3039 3041 3043 3046 3051 3054 3056 3060 3062 3065 3068 3071 3073 3076 3079 3083 3086 3088 3089 3091 3094 3096 3097 3099 3100 3100 3103 3105 3107 3111 3113 3115 3118 3120 3122 3123 3124 3123 3124 3127 3129 3131 3132 3134 3136 3136 3136 3137 3139 3140 3141 3142 3143 3145
3042 3040 3037 3035 3033 3031 3029 3028 3026 3024 3022 3021 3020 3019 3018 3018 3018 3017 3018 3018 3019 3019 3020 3021 3022 3020 3017 3020 3025 3027 3030 3031 3033 3035 3036 3038 3041 3044 3048 3051 3054 3057 3060 3064 3067 3069 3071 3073 3076 3079 3083 3084 3085 3089 3091 3090 3089 3092 3094 3097 3100 3103 3105 3108 3110 3112 3115 3117 3119 3121 3122 3121 3122 3124 3127 3129 3131 3133 3134 3134 3135 3136 3137 3138 3139 3141 3143 3144
3039 3036 3034 3032 3030 3028 3027 3025 3023 3022 3020 3019 3018 3017 3016 3015 3015 3015 3015 3015 3015 3016 3016 3018 3019 3018 3017 3019 3021 3024 3028 3028 3029 3031 3033 3036 3038 3041 3044 3048 3052 3055 3058 3061 3064 3066 3069 3071 3074 3077 3079 3080 3080 3082 3081 3079 3082 3088 3091 3095 3098 3101 3103 3104 3106 3109 3111 3114 3116 3119 3119 3119 3120 3122 3124 3127 3129 3131 3132 3133 3133 3135 3136 3137 3139 3140 3142 3143
3036 3034 3032 3030 3028 3026 3024 3023 3021 3020 3018 3017 3016 3015 3014 3013 3013 3013 3013 3013 3012 3013 3014 3015 3015 3016 3018 3018 3017 3020 3023 3026 3026 3027 3030 3033 3035 3038 3041 3046 3049 3052 3055 3057 3059 3063 3066 3069 3071 3071 3070 3070 3070 3072 3075 3079 3085 3089 3091 3094 3096 3098 3100 3101 3104 3106 3109 3111 3113 3116 3116 3115 3117 3119 3122 3124 3126 3128 3130 3131 3132 3133 3134 3136 3138 3139 3141 3142
3034 3032 3029 3027 3025 3023 3022 3021 3019 3018 3017 3015 3014 3013 3012 3011 3011 3010 3010 3010 3010 3010 3011 3012 3011 3011 3015 3017 3017 3017 3019 3022 3024 3025 3028 3030 3033 3035 3038 3043 3046 3048 3050 3053 3057 3061 3064 3066 3064 3060 3060 3063 3068 3072 3077 3083 3086 3089 3091 3093 3095 3096 3097 3099 3102 3104 3108 3109 3110 3114 3114 3112 3115 3118 3120 3122 3124 3126 3127 3129 3130 3131 3133 3135 3137 3138 3139 3140
3033 3030 3028 3025 3023 3022 3020 3019 3017 3016 3015 3013 3012 3011 3011 3011 3009 3008 3007 3006 3007 3007 3007 3009 3009 3007 3010 3015 3017 3017 3016 3018 3020 3023 3026 3029 3031 3033 3036 3040 3042 3043 3045 3052 3057 3060 3063 3060 3053 3054 3059 3066 3071 3075 3079 3083 3084 3086 3089 3091 3093 3094 3095 3097 3099 3102 3106 3107 3108 3112 3112 3112 3114 3116 3118 3120 3122 3124 3125 3127 3127 3129 3131 3133 3135 3136 3137 3138
3031 3028 3026 3024 3022 3020 3018 3017 3015 3014 3013 3012 3011 3010 3010 3010 3008 3006 3005 3003 3003 3005 3004 3005 3006 3005 3006 3011 3014 3015 3014 3015 3017 3020 3024 3027 3029 3030 3033 3037 3038 3040 3044 3050 3054 3058 3057 3048 3045 3055 3064 3069 3073 3075 3079 3081 3081 3083 3086 3089 3090 3091 3094 3095 3096 3099 3103 3105 3106 3108 3109 3111 3114 3115 3116 3119 3120 3122 3124 3125 3125 3127 3129 3131 3133 3134 3135 3137
3030 3027 3025 3022 3020 3018 3016 3014 3013 3011 3011 3010 3009 3008 3008 3008 3007 3006 3005 3001 2999 3001 3001 3001 3002 3003 3004 3007 3010 3012 3011 3012 3016 3018 3021 3025 3026 3028 3031 3034 3036 3039 3043 3045 3047 3049 3045 3040 3047 3060 3065 3068 3072 3074 3077 3079 3079 3079 3081 3084 3086 3088 3091 3092 3092 3095 3100 3102 3102 3103 3106 3109 3112 3114 3116 3118 3120 3120 3121 3122 3123 3125 3128 3131 3132 3133 3135 3136
3029 3026 3023 3021 3019 3016 3014 3012 3010 3009 3009 3008 3008 3007 3007 3006 3006 3006 3004 3001 2995 2995 2998 2998 2999 2999 3001 3005 3008 3009 3008 3010 3013 3016 3019 3022 3024 3027 3029 3032 3035 3038 3040 3042 3043 3043 3041 3043 3053 3061 3064 3067 3070 3072 3075 3076 3075 3075 3077 3079 3082 3085 3088 3088 3089 3093 3098 3099 3096 3097 3104 3109 3111 3113 3114 3116 3118 3119 3120 3120 3121 3123 3126 3129 3131 3132 3134 3136
3027 3025 3022 3020 3018 3015 3013 3011 3009 3008 3007 3007 3007 3006 3006 3005 3005 3004 3003 3000 2993 2990 2993 2995 2995 2995 2998 3002 3004 3004 3006 3008 3009 3013 3017 3021 3022 3025 3027 3030 3034 3035 3037 3040 3042 3042 3044 3049 3054 3058 3062 3065 3067 3069 3071 3072 3073 3073 3073 3075 3079 3082 3085 3087 3089 3091 3094 3096 3093 3093 3102 3110 3111 3112 3113 3113 3115 3117 3118 3119 3120 3122 3124 3126 3129 3130 3132 3135
3026 3024 3021 3019 3017 3014 3012 3010 3008 3007 3006 3006 3006 3005 3005 3004 3003 3003 3002 2999 2993 2988 2989 2990 2991 2991 2994 2998 3000 3003 3005 3003 3006 3009 3013 3018 3021 3024 3027 3029 3031 3032 3035 3040 3042 3043 3046 3050 3053 3055 3059 3062 3064 3066 3067 3071 3072 3070 3069 3073 3077 3079 3083 3085 3087 3089 3089 3090 3092 3093 3098 3106 3109 3110 3111 3112 3113 3115 3116 3118 3119 3120 3122 3124 3127 3128 3130 3133
3025 3023 3020 3018 3016 3014 3012 3010 3008 3007 3005 3005 3004 3004 3004 3003 3003 3002 3001 3000 2994 2989 2988 2988 2990 2990 2991 2995 2998 3000 3000 3000 3004 3006 3008 3014 3018 3022 3025 3026 3028 3030 3034 3039 3040 3039 3043 3048 3050 3052 3056 3058 3060 3061 3064 3069 3069 3066 3067 3073 3076 3077 3080 3082 3084 3088 3087 3087 3091 3093 3094 3099 3104 3106 3109 3110 3112 3113 3114 3116 3117 3119 3121 3123 3126 3127 3129 3132
3024 3022 3019 3017 3015 3013 3012 3010 3008 3006 3005 3004 3003 3003 3002 3002 3003 3002 3002 3001 2994 2990 2990 2989 2990 2990 2991 2994 2995 2996 2997 3001 3004 3004 3006 3011 3014 3018 3021 3023 3027 3030 3032 3035 3035 3036 3041 3044 3045 3049 3052 3054 3054 3056 3062 3067 3066 3065 3068 3072 3075 3077 3079 3080 3083 3085 3084 3085 3089 3090 3091 3095 3099 3102 3106 3108 3109 3111 3112 3113 3115 3117 3120 3122 3125 3127 3128 3131
3023 3021 3018 3016 3015 3013 3011 3010 3008 3006 3005 3004 3004 3003 3002 3002 3002 3001 3003 3001 2993 2990 2991 2990 2990 2992 2992 2993 2993 2995 2999 3002 3003 3005 3008 3010 3012 3015 3017 3021 3026 3030 3032 3032 3034 3037 3040 3042 3045 3049 3050 3050 3053 3057 3062 3064 3065 3067 3070 3072 3074 3076 3077 3079 3081 3081 3081 3082 3083 3085 3088 3092 3098 3100 3101 3105 3106 3107 3110 3112 3114 3116 3118 3121 3124 3125 3127 3129
3022 3020 3017 3015 3014 3013 3011 3009 3008 3006 3005 3004 3004 3003 3002 3002 3001 3001 3002 2998 2991 2990 2991 2990 2990 2990 2992 2993 2994 2995 2997 3000 3002 3005 3009 3010 3012 3013 3016 3020 3024 3028 3032 3032 3034 3038 3040 3043 3045 3047 3047 3049 3054 3059 3060 3062 3066 3069 3070 3072 3073 3073 3074 3076 3077 3078 3079 3078 3077 3081 3084 3087 3094 3097 3096 3098 3101 3103 3107 3110 3111 3113 3117 3120 3123 3124 3127 3128
3021 3018 3016 3014 3013 3012 3010 3009 3007 3005 3004 3004 3004 3003 3002 3001 3001 3001 2999 2994 2990 2990 2989 2990 2990 2989 2990 2992 2994 2994 2996 2998 3000 3003 3007 3009 3011 3012 3014 3018 3021 3024 3028 3030 3032 3035 3039 3041 3041 3043 3046 3050 3055 3058 3059 3061 3066 3069 3069 3071 3071 3071 3072 3075 3075 3075 3074 3073 3074 3079 3082 3084 3088 3091 3092 3095 3099 3102 3104 3105 3107 3111 3114 3118 3121 3123 3126 3128
3020 3017 3015 3013 3011 3010 3009 3008 3007 3005 3004 3003 3003 3003 3002 3002 3001 2998 2995 2992 2990 2989 2988 2989 2990 2989 2990 2990 2990 2992 2994 2996 2997 3001 3005 3007 3008 3009 3011 3013 3017 3020 3022 3025 3029 3031 3035 3036 3037 3040 3044 3048 3051 3055 3057 3059 3062 3065 3066 3068 3068 3069 3072 3073 3072 3072 3072 3071 3073 3077 3081 3082 3082 3084 3088 3093 3097 3099 3102 3103 3105 3108 3112 3115 3119 3122 3124 3126
3018 3016 3014 3012 3010 3009 3008 3007 3006 3005 3004 3003 3003 3002 3002 3002 2999 2995 2993 2993 2991 2988 2987 2988 2988 2988 2989 2988 2988 2991 2993 2995 2996 2999 3003 3006 3007 3009 3010 3011 3015 3018 3018 3021 3025 3027 3030 3033 3035 3038 3041 3044 3047 3050 3051 3052 3056 3059 3060 3062 3063 3065 3069 3070 3069 3072 3074 3073 3073 3076 3080 3082 3081 3082 3086 3091 3094 3097 3099 3101 3103 3106 3110 3113 3117 3120 3122 3124
3017 3015 3013 3011 3009 3007 3007 3006 3005 3005 3004 3003 3002 3002 3002 3000 2996 2993 2992 2992 2990 2988 2987 2987 2986 2986 2987 2987 2987 2990 2992 2993 2995 2998 3001 3004 3006 3007 3008 3010 3013 3016 3018 3020 3022 3024 3026 3028 3030 3033 3036 3039 3042 3044 3047 3049 3052 3054 3055 3059 3062 3062 3064 3067 3067 3070 3074 3073 3073 3076 3079 3080 3081 3082 3084 3088 3091 3094 3097 3099 3103 3107 3110 3113 3116 3119 3120 3121
3015 3013 3011 3009 3008 3006 3006 3005 3004 3003 3003 3002 3002 3001 3000 2997 2994 2992 2991 2990 2989 2987 2986 2985 2985 2984 2985 2986 2986 2988 2992 2993 2994 2997 3000 3002 3004 3005 3006 3008 3010 3013 3016 3019 3021 3023 3025 3026 3027 3031 3034 3036 3038 3042 3047 3050 3051 3053 3055 3058 3059 3060 3061 3063 3065 3067 3071 3073 3073 3075 3077 3080 3081 3081 3084 3088 3089 3092 3095 3099 3102 3106 3109 3110 3113 3115 3117 3119
3013 3012 3010 3009 3007 3005 3005 3004 3003 3002 3001 3000 3000 2999 2996 2994 2992 2992 2990 2988 2988 2987 2985 2984 2983 2983 2984 2985 2986 2988 2991 2993 2993 2996 3000 3002 3003 3004 3005 3007 3008 3010 3013 3016 3019 3021 3024 3025 3028 3031 3034 3036 3038 3041 3045 3048 3049 3050 3052 3054 3056 3060 3060 3061 3065 3067 3070 3073 3074 3073 3076 3079 3081 3083 3086 3088 3089 3091 3094 3098 3101 3104 3105 3107 3109 3112 3114 3116
3012 3011 3009 3008 3006 3004 3003 3003 3001 3000 2999 2999 2998 2995 2993 2992 2991 2991 2989 2988 2988 2987 2985 2984 2983 2983 2984 2985 2986 2988 2991 2993 2993 2996 2999 3001 3002 3003 3005 3006 3008 3010 3011 3014 3018 3020 3021 3023 3026 3028 3031 3035 3038 3041 3043 3046 3048 3047 3049 3051 3056 3060 3059 3059 3063 3067 3070 3074 3073 3072 3074 3076 3079 3084 3087 3088 3089 3091 3094 3097 3100 3102 3103 3105 3106 3109 3111 3114
3011 3010 3008 3007 3005 3003 3002 3000 2999 2998 2998 2997 2995 2992 2991 2990 2989 2990 2989 2987 2987 2986 2985 2985 2984 2984 2985 2986 2987 2989 2991 2992 2993 2995 2998 3000 3001 3001 3003 3005 3007 3009 3011 3014 3018 3020 3020 3022 3023 3026 3029 3033 3038 3040 3041 3043 3046 3047 3049 3052 3055 3056 3056 3057 3061 3065 3069 3072 3072 3071 3073 3074 3075 3078 3083 3085 3086 3089 3093 3096 3097 3099 3101 3102 3105 3107 3110 3112
3011 3009 3007 3006 3005 3003 3001 3000 2998 2997 2997 2994 2992 2991 2989 2988 2987 2988 2987 2987 2986 2985 2984 2984 2984 2985 2986 2988 2989 2990 2991 2992 2993 2995 2997 2999 3000 3000 3001 3003 3006 3008 3010 3013 3017 3019 3020 3020 3021 3025 3029 3033 3036 3036 3036 3039 3044 3046 3049 3053 3054 3054 3054 3056 3059 3062 3066 3069 3071 3072 3072 3072 3072 3074 3078 3081 3082 3085 3090 3093 3094 3096 3097 3100 3103 3105 3107 3110
3011 3009 3007 3006 3005 3003 3001 3000 2998 2997 2995 2992 2991 2989 2987 2986 2985 2985 2985 2985 2985 2985 2984 2984 2985 2986 2987 2988 2989 2990 2992 2992 2993 2995 2996 2997 2999 3000 3000 3002 3005 3008 3010 3014 3017 3019 3020 3019 3020 3023 3027 3030 3031 3031 3033 3037 3040 3044 3046 3048 3051 3052 3053 3056 3058 3060 3063 3065 3068 3071 3070 3069 3069 3071 3074 3076 3078 3081 3086 3089 3092 3094 3096 3098 3101 3104 3106 3108
3012 3009 3007 3006 3005 3003 3001 3000 2997 2996 2994 2991 2990 2988 2986 2985 2983 2983 2983 2983 2983 2984 2984 2984 2985 2986 2987 2987 2988 2990 2992 2992 2992 2995 2996 2997 2998 2999 3000 3001 3004 3008 3011 3014 3018 3018 3018 3020 3021 3023 3025 3026 3027 3029 3035 3038 3039 3042 3045 3046 3048 3049 3052 3055 3058 3058 3061 3063 3064 3067 3068 3067 3067 3069 3071 3073 3076 3079 3083 3087 3089 3092 3094 3096 3099 3102 3104 3106
3012 3010 3008 3006 3005 3003 3002 3000 2997 2996 2994 2992 2990 2988 2986 2985 2983 2982 2983 2983 2984 2985 2985 2986 2986 2987 2987 2988 2988 2990 2993 2992 2992 2994 2996 2997 2997 2997 3000 3002 3004 3007 3010 3013 3016 3017 3018 3021 3024 3025 3027 3027 3029 3033 3037 3039 3041 3043 3045 3046 3047 3048 3050 3054 3056 3057 3059 3061 3062 3064 3066 3066 3067 3068 3069 3071 3074 3078 3082 3085 3087 3089 3092 3095 3097 3099 3102 3104
3013 3011 3009 3007 3005 3003 3002 3000 2998 2996 2995 2993 2991 2990 2988 2986 2985 2984 2984 2984 2985 2986 2986 2987 2988 2988 2988 2989 2989 2991 2993 2992 2993 2995 2996 2998 2998 2998 3000 3003 3004 3008 3011 3013 3016 3018 3020 3023 3024 3027 3031 3032 3034 3038 3038 3039 3042 3043 3044 3046 3047 3048 3050 3053 3056 3057 3058 3059 3061 3063 3066 3067 3067 3068 3070 3070 3073 3077 3081 3084 3085 3088 3091 3093 3095 3097 3099 3102
3015 3012 3009 3007 3005 3004 3002 3001 2999 2998 2996 2994 2993 2991 2990 2988 2987 2986 2986 2986 2986 2987 2988 2989 2990 2990 2989 2990 2990 2991 2993 2994 2993 2995 2997 2998 2999 2999 3001 3003 3005 3009 3012 3014 3016 3018 3020 3022 3023 3025 3030 3032 3034 3037 3036 3037 3039 3040 3041 3045 3046 3048 3050 3053 3055 3057 3057 3057 3059 3062 3065 3066 3067 3069 3071 3071 3073 3077 3081 3083 3085 3087 3089 3091 3094 3096 3098 3100
3015 3013 3010 3007 3005 3004 3002 3001 3000 2999 2997 2995 2993 2992 2991 2990 2989 2988 2988 2988 2988 2989 2989 2990 2990 2990 2990 2990 2990 2989 2992 2995 2995 2995 2997 2998 2999 3001 3002 3004 3006 3009 3013 3015 3017 3019 3020 3021 3021 3023 3027 3028 3029 3029 3030 3032 3035 3037 3039 3042 3045 3047 3050 3052 3054 3056 3056 3057 3058 3061 3063 3065 3067 3070 3071 3072 3073 3076 3079 3083 3085 3087 3089 3090 3092 3094 3096 3098
3016 3013 3010 3007 3006 3004 3003 3001 3000 2999 2998 2997 2995 2993 2992 2991 2990 2990 2989 2989 2990 2991 2991 2991 2991 2992 2992 2993 2992 2990 2991 2995 2995 2995 2997 2999 3000 3001 3003 3005 3007 3010 3014 3015 3017 3020 3020 3020 3022 3024 3027 3028 3028 3028 3030 3032 3035 3037 3038 3040 3043 3046 3048 3050 3052 3054 3055 3056 3058 3060 3062 3064 3067 3069 3071 3073 3074 3075 3078 3081 3084 3086 3087 3089 3090 3092 3094 3096
3019 3015 3012 3009 3007 3005 3003 3001 3000 2999 2999 2998 2996 2995 2994 2993 2992 2992 2991 2991 2992 2992 2992 2992 2993 2993 2994 2994 2993 2992 2992 2995 2995 2996 2998 2999 3000 3002 3004 3007 3009 3011 3014 3016 3017 3020 3022 3021 3023 3026 3027 3029 3031 3032 3033 3033 3035 3037 3038 3040 3043 3044 3047 3049 3050 3052 3054 3056 3058 3059 3061 3064 3066 3067 3069 3072 3074 3075 3078 3081 3082 3083 3085 3087 3089 3091 3093 3095
3021 3019 3016 3013 3010 3007 3005 3002 3001 3000 3000 2999 2998 2997 2996 2995 2994 2994 2994 2994 2994 2994 2994 2994 2993 2993 2994 2993 2993 2994 2994 2995 2996 2997 2998 2999 3001 3003 3005 3009 3010 3011 3014 3016 3017 3020 3022 3022 3023 3025 3026 3028 3030 3033 3035 3035 3037 3039 3040 3041 3044 3044 3045 3049 3051 3052 3053 3056 3058 3059 3061 3063 3065 3066 3068 3070 3073 3075 3078 3081 3082 3082 3084 3086 3088 3090 3091 3092
3023 3021 3019 3016 3013 3010 3007 3004 3002 3001 3001 3000 3000 2999 2998 2997 2996 2996 2996 2996 2996 2995 2996 2996 2994 2993 2993 2994 2995 2995 2996 2997 2998 2998 2999 3000 3001 3003 3006 3008 3010 3012 3016 3017 3018 3021 3022 3022 3023 3025 3026 3028 3029 3030 3033 3035 3037 3040 3041 3042 3044 3044 3045 3048 3051 3052 3053 3055 3058 3060 3061 3063 3064 3066 3067 3069 3071 3074 3077 3080 3081 3082 3083 3084 3086 3088 3089 3090
3024 3021 3019 3017 3015 3013 3010 3006 3003 3003 3003 3002 3002 3001 3000 2999 2998 2998 2998 2997 2997 2997 2997 2996 2995 2994 2994 2995 2996 2997 2997 2998 2999 3000 3000 3001 3002 3003 3006 3008 3010 3013 3017 3018 3019 3021 3022 3023 3024 3025 3027 3028 3027 3027 3030 3033 3036 3039 3040 3042 3044 3044 3045 3047 3049 3051 3053 3055 3057 3059 3061 3063 3064 3065 3067 3069 3071 3072 3075 3077 3079 3081 3082 3083 3084 3086 3087 3088
3026 3024 3021 3018 3016 3014 3011 3008 3006 3005 3003 3003 3003 3002 3001 3000 2999 2999 2999 2999 2999 2999 2998 2997 2996 2995 2995 2997 2997 2998 2998 2999 3000 3001 3002 3003 3003 3004 3005 3008 3010 3014 3017 3018 3020 3021 3022 3023 3024 3025 3025 3025 3024 3026 3029 3032 3034 3037 3039 3041 3043 3044 3044 3045 3048 3050 3052 3054 3056 3057 3060 3062 3063 3064 3066 3068 3070 3072 3073 3075 3077 3079 3080 3081 3083 3084 3086 3087
3028 3026 3023 3020 3018 3016 3013 3010 3008 3006 3005 3004 3003 3003 3002 3000 2999 2999 3000 3000 3000 3000 2998 2997 2997 2996 2996 2998 2999 2999 3000 3000 3001 3002 3003 3004 3005 3006 3007 3009 3012 3015 3017 3018 3019 3020 3022 3023 3024 3024 3025 3024 3024 3026 3028 3030 3033 3036 3038 3039 3041 3042 3043 3045 3047 3049 3051 3054 3055 3057 3059 3060 3061 3063 3065 3066 3069 3071 3072 3074 3076 3077 3079 3080 3082 3083 3084 3086